Pascagoula Weather Center

Moon Phase Calendar



Online Cameras

 


      

Current Conditions in Pascagoula
5/18/2021 11:16:40 AM

77°F
Feels Like 79
Clouds
Humidity
87%
Pressure
30.09"
Wind
16.1 mph (SE)
Dew Point
73°F
UV Index
1/10 (Low)
Visibility
6 mi

Hourly Forecast

Date & Time Tue, May 18
11:00 AM
Tue, May 18
12:00 PM
Tue, May 18
1:00 PM
Tue, May 18
2:00 PM
Tue, May 18
3:00 PM
Tue, May 18
4:00 PM
Tue, May 18
5:00 PM
Tue, May 18
6:00 PM
Tue, May 18
7:00 PM
Tue, May 18
8:00 PM
Tue, May 18
9:00 PM
Tue, May 18
10:00 PM
Tue, May 18
11:00 PM
Wed, May 19
12:00 AM
Wed, May 19
1:00 AM
Wed, May 19
2:00 AM
Wed, May 19
3:00 AM
Wed, May 19
4:00 AM
Wed, May 19
5:00 AM
Wed, May 19
6:00 AM
Wed, May 19
7:00 AM
Wed, May 19
8:00 AM
Wed, May 19
9:00 AM
Wed, May 19
10:00 AM
Wed, May 19
11:00 AM
Wed, May 19
12:00 PM
Wed, May 19
1:00 PM
Wed, May 19
2:00 PM
Wed, May 19
3:00 PM
Wed, May 19
4:00 PM
Wed, May 19
5:00 PM
Wed, May 19
6:00 PM
Wed, May 19
7:00 PM
Wed, May 19
8:00 PM
Wed, May 19
9:00 PM
Wed, May 19
10:00 PM
Wed, May 19
11:00 PM
Thu, May 20
12:00 AM
Thu, May 20
1:00 AM
Thu, May 20
2:00 AM
Thu, May 20
3:00 AM
Thu, May 20
4:00 AM
Thu, May 20
5:00 AM
Thu, May 20
6:00 AM
Thu, May 20
7:00 AM
Thu, May 20
8:00 AM
Thu, May 20
9:00 AM
Thu, May 20
10:00 AM
Condition
Rain

Rain

Rain

Rain

Rain

Rain

Rain

Rain

Rain

Rain

Clouds

Clouds

Clouds

Clouds

Clouds

Clouds

Clouds

Clouds

Clouds

Clouds

Clouds

Clouds

Clouds

Clouds

Clouds

Clouds

Clouds

Clouds

Clouds

Clouds

Clouds

Clouds

Clouds

Clouds

Clouds

Clouds

Clear

Clear

Clear

Clear

Clear

Clear

Rain

Clouds

Clouds

Rain

Clouds

Clouds
Temperature 77°F76°F75°F73°F72°F71°F71°F71°F71°F71°F72°F71°F71°F72°F71°F71°F72°F73°F73°F73°F74°F74°F75°F76°F75°F76°F77°F76°F76°F76°F76°F74°F73°F72°F71°F70°F71°F72°F72°F73°F74°F74°F73°F73°F73°F74°F75°F76°F
Feels Like 79°F78°F76°F75°F73°F72°F72°F72°F72°F72°F73°F72°F72°F72°F72°F72°F73°F74°F74°F74°F74°F75°F76°F77°F76°F77°F77°F77°F77°F77°F76°F75°F74°F73°F71°F71°F72°F73°F73°F74°F75°F75°F74°F74°F74°F75°F76°F77°F
Cloudiness 90%92%94%96%98%100%100%100%100%100%100%100%100%98%91%30%65%77%82%73%74%60%73%81%85%88%89%82%84%65%52%47%47%18%15%12%9%8%6%2%4%5%25%30%29%24%19%14%
Visibility 6 mi5 mi3 mi4 mi4 mi5 mi6 mi6 mi6 mi6 mi6 mi6 mi6 mi6 mi6 mi6 mi6 mi6 mi6 mi6 mi6 mi6 mi6 mi6 mi6 mi6 mi6 mi6 mi6 mi6 mi6 mi6 mi6 mi6 mi6 mi6 mi6 mi6 mi6 mi6 mi6 mi6 mi6 mi6 mi6 mi6 mi6 mi6 mi
Precipitation 98%100%100%100%100%100%100%98%98%43%25%17%5%5%4%0%0%0%0%0%0%1%1%2%2%2%2%0%0%0%0%0%0%0%0%0%0%0%0%0%0%0%20%0%1%22%10%9%
Humidity 87%88%89%90%91%93%92%92%90%90%89%89%89%88%88%89%86%82%83%83%83%82%79%78%79%75%73%73%72%72%74%78%82%83%87%88%87%84%82%82%84%83%83%85%86%85%81%78%
Dew Point 73°F72°F71°F70°F69°F68°F68°F68°F67°F68°F68°F68°F68°F68°F67°F67°F68°F67°F68°F68°F68°F68°F68°F68°F68°F67°F67°F67°F66°F66°F67°F67°F67°F66°F67°F67°F67°F67°F67°F67°F69°F68°F68°F68°F68°F69°F69°F68°F
Pressure 30.09"30.09"30.09"30.09"30.09"30.06"30.06"30.06"30.06"30.06"30.06"30.06"30.06"30.06"30.06"30.03"30.03"30.03"30.03"30.06"30.09"30.12"30.12"30.12"30.12"30.12"30.12"30.12"30.09"30.09"30.09"30.09"30.09"30.09"30.09"30.09"30.09"30.09"30.09"30.09"30.09"30.09"30.09"30.12"30.15"30.15"30.15"30.15"
Wind Speed 16.1 mph14.4 mph14.4 mph14.9 mph15.2 mph15.8 mph16.6 mph16.6 mph15.1 mph14.1 mph12.3 mph9.8 mph9.6 mph10.1 mph8.9 mph12.2 mph16 mph19.2 mph19.7 mph20.9 mph19.8 mph19.5 mph19.2 mph19.2 mph18.9 mph19.9 mph20.2 mph19.8 mph19.3 mph18.3 mph17 mph15.5 mph14.4 mph12 mph9.9 mph10 mph11.3 mph12 mph12.6 mph14.5 mph17.1 mph19 mph19 mph18.4 mph18.5 mph19 mph19.9 mph20.5 mph
Wind
Direction
130°
SE
128°
SE
128°
SE
128°
SE
123°
ESE
115°
ESE
111°
ESE
111°
ESE
113°
ESE
114°
ESE
113°
ESE
112°
ESE
112°
ESE
121°
ESE
119°
ESE
115°
ESE
119°
ESE
122°
ESE
121°
ESE
124°
SE
123°
ESE
120°
ESE
118°
ESE
118°
ESE
114°
ESE
113°
ESE
114°
ESE
113°
ESE
113°
ESE
114°
ESE
116°
ESE
120°
ESE
123°
ESE
122°
ESE
117°
ESE
114°
ESE
125°
SE
125°
SE
121°
ESE
119°
ESE
122°
ESE
121°
ESE
119°
ESE
113°
ESE
110°
ESE
109°
ESE
110°
ESE
112°
ESE

Daily Forecast

Date High Low Precip. Humidity
Today
May 18

Rain
77 °F
71 °F
100%
88%
Wednesday
May 19

Clouds
77 °F
70 °F
5%
75%
Thursday
May 20

Rain
77 °F
70 °F
29%
73%
Friday
May 21

Clear
77 °F
69 °F
1%
65%
Saturday
May 22

Clear
81 °F
68 °F
0%
60%
Sunday
May 23

Clear
84 °F
68 °F
0%
52%
Monday
May 24

Clear
85 °F
71 °F
0%
52%
Tuesday
May 25

Clear
85 °F
72 °F
0%
61%
Wednesday
May 26

Clouds
85 °F
72 °F
0%
56%
Thursday
May 27

Clear
85 °F
73 °F
0%
59%
Friday
May 28

Clouds
85 °F
74 °F
0%
62%
Saturday
May 29

Clear
84 °F
75 °F
0%
64%
Sunday
May 30

Clear
84 °F
75 °F
0%
66%
Monday
May 31

Clouds
84 °F
75 °F
0%
62%
Tuesday
Jun 1

Rain
86 °F
75 °F
29%
58%
Wednesday
Jun 2

Rain
85 °F
74 °F
38%
58%

Temperature 8-14 Day Outlook



Precipitation 8-14 Day Outlook




Quick Links
Pascagoula News
Pascagoula Photos
Pascagoula Videos




About Us
Contact Us
Site Map
Search Site
Advertise With Us
   
Pascagoula.USGulf.info
THE PASCAGOULA WEBSITE

Copyright 2021, Coastal Town
Privacy    |    Legal